| time (UTC) | temp F | wind direction | speed knots | gust knots | rain 1hr in | rain 24hr in | rain mn in | humidity % | barometer mb |
| 20260506221528 | 0 | 180 | 0.0 | 1.7 | 0.00 | 0.00 | 0.00 | 1012.5 | |
| 20260506220025 | 0 | 180 | 0.0 | 5.2 | 0.00 | 0.00 | 0.00 | 1012.4 | |
| 20260506214523 | 0 | 180 | 5.2 | 7.8 | 0.00 | 0.00 | 0.00 | 1012.3 | |
| 20260506213022 | 0 | 180 | 0.9 | 5.2 | 0.00 | 0.00 | 0.00 | 1012.4 | |
| 20260506211517 | 0 | 180 | 3.5 | 9.6 | 0.00 | 0.00 | 0.00 | 1012.3 | |
| 20260506210117 | 0 | 184 | 5.2 | 11.3 | 0.00 | 0.00 | 0.00 | 1012.1 | |
| 20260506204516 | 0 | 184 | 5.2 | 8.7 | 0.00 | 0.00 | 0.00 | 1012.2 | |
| 20260506203015 | 0 | 182 | 5.2 | 11.3 | 0.00 | 0.00 | 0.00 | 1012.2 | |
| 20260506201510 | 0 | 192 | 6.1 | 8.7 | 0.00 | 0.00 | 0.00 | 1012.0 | |
| 20260506200006 | 0 | 194 | 0.0 | 5.2 | 0.00 | 0.00 | 0.00 | 1012.0 | |
| 20260506194502 | 0 | 194 | 0.0 | 6.1 | 0.00 | 0.00 | 0.00 | 1011.9 | |
| 20260506193059 | 0 | 194 | 0.0 | 3.5 | 0.00 | 0.00 | 0.00 | 1011.8 | |
| 20260506191556 | 0 | 194 | 0.0 | 3.5 | 0.00 | 0.00 | 0.00 | 1011.7 | |
| 20260506190056 | 0 | 194 | 0.0 | 4.3 | 0.00 | 0.00 | 0.00 | 1011.7 | |
| 20260506184550 | 0 | 193 | 0.0 | 6.1 | 0.00 | 0.00 | 0.00 | 1011.6 | |
| 20260506183046 | 0 | 194 | 0.0 | 5.2 | 0.00 | 0.00 | 0.00 | 1011.7 | |
| 20260506181546 | 0 | 194 | 1.7 | 7.8 | 0.00 | 0.00 | 0.00 | 1011.6 | |
| 20260506180042 | 0 | 241 | 0.9 | 7.0 | 0.00 | 0.00 | 0.00 | 1011.6 | |
| 20260506174534 | 0 | 240 | 0.0 | 4.3 | 0.00 | 0.02 | 0.00 | 1011.5 | |
| 20260506173028 | 0 | 240 | 1.7 | 5.2 | 0.00 | 0.02 | 0.00 | 1011.5 | |
| 20260506171536 | 0 | 240 | 2.6 | 5.2 | 0.00 | 0.02 | 0.00 | 1011.5 | |
| 20260506170035 | 0 | 248 | 3.5 | 7.0 | 0.00 | 0.02 | 0.00 | 1011.6 | |
| 20260506164531 | 0 | 290 | 0.9 | 8.7 | 0.00 | 0.02 | 0.00 | 1011.7 | |
| 20260506163025 | 0 | 321 | 2.6 | 6.1 | 0.00 | 0.02 | 0.00 | 1011.6 | |
| 20260506161527 | 0 | 320 | 0.9 | 7.0 | 0.00 | 0.02 | 0.00 | 1011.7 | |
| 20260506160025 | 0 | 5 | 5.2 | 10.4 | 0.00 | 0.02 | 0.00 | 1011.7 | |
| 20260506154524 | 0 | 336 | 7.0 | 12.2 | 0.00 | 0.02 | 0.00 | 1011.6 | |
| 20260506153023 | 0 | 350 | 6.1 | 13.0 | 0.00 | 0.02 | 0.00 | 1011.8 | |
| 20260506151531 | 0 | 323 | 5.2 | 12.2 | 0.00 | 0.02 | 0.00 | 1011.8 | |
| 20260506150023 | 0 | 326 | 7.0 | 10.4 | 0.00 | 0.02 | 0.00 | 1011.8 | |
| 20260506144521 | 0 | 338 | 2.6 | 8.7 | 0.00 | 0.02 | 0.00 | 1011.8 | |
| 20260506143021 | 0 | 348 | 5.2 | 8.7 | 0.00 | 0.02 | 0.00 | 1011.8 | |
| 20260506141520 | 0 | 312 | 2.6 | 9.6 | 0.00 | 0.02 | 0.00 | 1011.9 | |
| 20260506140026 | 0 | 171 | 7.0 | 9.6 | 0.00 | 0.02 | 0.00 | 1011.9 | |
| 20260506134516 | 0 | 178 | 7.0 | 13.0 | 0.00 | 0.02 | 0.00 | 1012.0 | |
| 20260506133025 | 0 | 190 | 2.6 | 4.3 | 0.00 | 0.02 | 0.00 | 1012.1 | |
| 20260506131514 | 0 | 190 | 4.3 | 7.8 | 0.00 | 0.02 | 0.00 | 1012.2 | |
| 20260506130004 | 0 | 190 | 7.0 | 10.4 | 0.00 | 0.02 | 0.00 | 1012.3 | |
| 20260506124558 | 0 | 193 | 6.1 | 12.2 | 0.00 | 0.02 | 0.00 | 1012.2 | |
| 20260506123055 | 0 | 150 | 7.0 | 8.7 | 0.00 | 0.02 | 0.00 | 1012.0 | |
| 20260506121553 | 0 | 150 | 5.2 | 7.0 | 0.00 | 0.02 | 0.00 | 1011.8 | |
| 20260506120049 | 0 | 155 | 3.5 | 6.1 | 0.00 | 0.02 | 0.00 | 1011.9 | |
| 20260506114546 | 0 | 157 | 5.2 | 10.4 | 0.00 | 0.02 | 0.00 | 1011.9 | |
| 20260506113047 | 0 | 347 | 3.5 | 12.2 | 0.00 | 0.02 | 0.00 | 1011.9 | |
| 20260506111534 | 0 | 244 | 2.6 | 10.4 | 0.00 | 0.02 | 0.00 | 1011.9 | |
| 20260506110034 | 0 | 355 | 7.0 | 13.0 | 0.00 | 0.02 | 0.00 | 1011.8 | |
| 20260506104526 | 0 | 355 | 8.7 | 13.9 | 0.00 | 0.06 | 0.00 | 1011.8 | |
| 20260506103025 | 0 | 360 | 5.2 | 8.7 | 0.00 | 0.06 | 0.00 | 1011.7 | |
| 20260506101519 | 0 | 267 | 1.7 | 9.6 | 0.00 | 0.06 | 0.00 | 1011.8 | |
| 20260506100025 | 0 | 280 | 4.3 | 12.2 | 0.00 | 0.06 | 0.00 | 1011.7 | |
| 20260506094508 | 0 | 355 | 6.1 | 16.5 | 0.00 | 0.13 | 0.00 | 1011.7 | |
| 20260506093005 | 0 | 258 | 3.5 | 15.6 | 0.00 | 0.13 | 0.00 | 1011.7 | |
| 20260506091601 | 0 | 285 | 4.3 | 10.4 | 0.00 | 0.13 | 0.00 | 1011.7 | |
| 20260506090055 | 0 | 182 | 4.3 | 7.8 | 0.00 | 0.13 | 0.00 | 1011.7 | |
| 20260506084554 | 0 | 182 | 0.0 | 4.3 | 0.00 | 0.19 | 0.00 | 1011.6 | |
| 20260506083051 | 0 | 180 | 1.7 | 8.7 | 0.00 | 0.19 | 0.00 | 1011.6 | |
| 20260506081542 | 0 | 176 | 0.9 | 9.6 | 0.00 | 0.19 | 0.00 | 1011.5 | |
| 20260506073029 | 0 | 177 | 2.6 | 4.3 | 0.00 | 0.23 | 0.00 | 1011.4 | |
| 20260506071525 | 0 | 177 | 2.6 | 4.3 | 0.00 | 0.23 | 0.00 | 1011.4 | |
| 20260506061507 | 0 | 182 | 5.2 | 8.7 | 0.00 | 0.25 | 0.00 | 1011.3 | |
| 20260506044548 | 0 | 282 | 3.5 | 6.1 | 0.00 | 0.26 | 0.00 | 1011.3 | |
| 20260506043040 | 0 | 355 | 4.3 | 7.8 | 0.00 | 0.26 | 0.00 | 1011.2 | |
| 20260506041536 | 0 | 355 | 5.2 | 9.6 | 0.00 | 0.26 | 0.00 | 1011.1 | |
| 20260506040038 | 0 | 296 | 0.0 | 9.6 | 0.00 | 0.26 | 0.00 | 1011.1 | |
| 20260506034529 | 0 | 258 | 1.7 | 4.3 | 0.00 | 0.26 | 0.00 | 1010.9 | |
| 20260506033022 | 0 | 258 | 0.0 | 4.3 | 0.00 | 0.26 | 0.00 | 1010.8 | |
| 20260506031517 | 0 | 258 | 2.6 | 5.2 | 0.00 | 0.26 | 0.00 | 1010.9 | |
| 20260506030014 | 0 | 259 | 4.3 | 7.0 | 0.00 | 0.26 | 0.00 | 1010.8 | |
| 20260506024509 | 0 | 259 | 0.9 | 5.2 | 0.00 | 0.26 | 0.00 | 1011.0 | |
| 20260506023004 | 0 | 259 | 0.0 | 7.0 | 0.00 | 0.26 | 0.00 | 1011.1 | |
| 20260506021613 | 0 | 265 | 0.0 | 3.5 | 0.00 | 0.26 | 0.00 | 1011.1 | |
| 20260506020055 | 0 | 265 | 1.7 | 4.3 | 0.00 | 0.26 | 0.00 | 1011.1 | |
| 20260506014551 | 0 | 265 | 0.0 | 3.5 | 0.00 | 0.26 | 0.00 | 1011.1 | |
| 20260506013046 | 0 | 265 | 0.0 | 0.0 | 0.00 | 0.26 | 0.00 | 1010.9 | |
| 20260506011542 | 0 | 265 | 0.0 | 0.0 | 0.00 | 0.26 | 0.00 | 1010.9 | |
| 20260506010048 | 0 | 265 | 2.6 | 4.3 | 0.00 | 0.26 | 0.00 | 1011.0 | |
| 20260506004533 | 0 | 265 | 0.0 | 0.9 | 0.00 | 0.27 | 0.00 | 1011.0 | |
| 20260506003029 | 0 | 265 | 1.7 | 4.3 | 0.00 | 0.27 | 0.00 | 1010.9 | |
| 20260506001524 | 0 | 265 | 0.0 | 0.0 | 0.00 | 0.27 | 0.00 | 1011.1 | |
| 20260506000020 | 0 | 265 | 0.9 | 7.0 | 0.00 | 0.27 | 0.00 | 1011.2 | |
| 20260505234531 | 0 | 292 | 0.0 | 1.7 | 0.00 | 0.27 | 0.00 | 1011.2 | |
| 20260505233011 | 0 | 292 | 0.0 | 2.6 | 0.00 | 0.27 | 0.00 | 1011.2 | |
| 20260505231507 | 0 | 292 | 0.0 | 3.5 | 0.00 | 0.27 | 0.00 | 1011.2 | |
| 20260505230002 | 0 | 292 | 1.7 | 5.2 | 0.00 | 0.27 | 0.00 | 1011.2 | |
| 20260505224559 | 0 | 292 | 0.0 | 1.7 | 0.00 | 0.28 | 0.00 | 1011.3 | |
| 20260505223054 | 0 | 292 | 0.0 | 3.5 | 0.00 | 0.28 | 0.00 | 1011.2 |